EW3374 Gabicce Mare IT current weather conditions

sailwx.info

Wind from 093 at 3 knots gusting 5

Air temperature 9.4° C
Dewpoint 7.2° C

Last reported at 2019-Dec-08 15:08 UTC.
Time now 2019-Dec-08 15:41 UTC

Location: N 43°58' E 012°45'.
View on Google Maps.

See reports from other nearby stations

  
Tides and Currents Weather Stations Pressure Air Temp Water Temp Dewpoint Dewpoint Depression Visibility Wind Speed Wind Dir Waves Ship Positions
date/time (UTC)wind fromknots sea level pressurealtimeterstation pressurevisibilityair tempwater tempwave heightnotes
2019-Dec-08 15:08 093 3 gusting 5 9.4
2019-Dec-08 14:53 094 4 gusting 5 9.4
2019-Dec-08 14:48 083 2 gusting 4 9.4
2019-Dec-08 14:43 075 2 gusting 4 9.4
2019-Dec-08 14:38 078 0 gusting 4 9.4
2019-Dec-08 14:33 049 1 gusting 4 9.4
2019-Dec-08 14:28 076 1 gusting 4 9.4
2019-Dec-08 14:23 067 2 gusting 4 9.4
2019-Dec-08 14:18 041 2 gusting 5 9.4
2019-Dec-08 14:08 061 5 gusting 7 8.9
2019-Dec-08 14:03 074 5 gusting 7 9.4
2019-Dec-08 13:58 067 4 gusting 9 8.9
2019-Dec-08 13:53 083 6 gusting 9 8.9
2019-Dec-08 13:48 049 6 gusting 8 9.4
2019-Dec-08 13:43 076 4 gusting 6 9.4
2019-Dec-08 13:38 046 4 gusting 6 9.4
2019-Dec-08 13:33 046 4 gusting 6 9.4
2019-Dec-08 13:28 064 5 gusting 7 9.4
2019-Dec-08 13:23 067 4 gusting 7 9.4
2019-Dec-08 13:18 082 5 gusting 7 9.4
2019-Dec-08 13:13 046 3 gusting 7 9.4
2019-Dec-08 13:08 028 4 gusting 6 9.4
2019-Dec-08 13:03 049 2 gusting 6 9.4
2019-Dec-08 12:58 044 4 gusting 6 9.4
2019-Dec-08 12:53 051 3 gusting 5 9.4
2019-Dec-08 12:43 055 3 gusting 5 9.4
2019-Dec-08 12:38 044 3 gusting 5 9.4
2019-Dec-08 12:33 038 1 gusting 5 9.4
2019-Dec-08 12:28 051 3 gusting 5 9.4
2019-Dec-08 12:23 032 2 gusting 4 9.4
2019-Dec-08 12:18 019 2 gusting 3 9.4
2019-Dec-08 12:13 015 1 gusting 2 9.4
2019-Dec-08 12:08 030 1 gusting 2 8.9
2019-Dec-08 12:03 018 1 gusting 4 8.9
2019-Dec-08 11:58 035 2 gusting 4 8.9
2019-Dec-08 11:53 032 1 gusting 5 8.9
2019-Dec-08 11:48 022 3 gusting 5 9.4
2019-Dec-08 11:43 036 3 gusting 5 9.4
2019-Dec-08 11:38 022 2 gusting 6 8.9
2019-Dec-08 11:33 033 3 gusting 6 9.4
2019-Dec-08 11:28 012 4 gusting 6 9.4
2019-Dec-08 11:23 033 2 gusting 6 9.4
2019-Dec-08 11:18 028 3 gusting 6 9.4
2019-Dec-08 11:13 034 4 gusting 6 9.4
2019-Dec-08 11:08 018 5 gusting 6 9.4
2019-Dec-08 11:03 019 4 gusting 6 9.4
2019-Dec-08 10:58 012 3 gusting 6 10.0
2019-Dec-08 10:53 023 3 gusting 6 10.0
2019-Dec-08 10:43 024 3 gusting 6 10.6
2019-Dec-08 10:38 024 4 gusting 6 10.6
2019-Dec-08 10:33 355 1 gusting 2 10.6
2019-Dec-08 10:28 040 2 gusting 2 10.6
2019-Dec-08 10:23 202 0 gusting 1 10.6
2019-Dec-08 10:18 202 10.0
2019-Dec-08 10:13 202 0 gusting 4 9.4
2019-Dec-08 10:08 202 1 gusting 4 9.4
2019-Dec-08 10:03 202 2 gusting 5 9.4
2019-Dec-08 09:58 211 2 gusting 5 8.9
2019-Dec-08 09:53 167 1 gusting 5 8.9
2019-Dec-08 09:48 168 3 gusting 5 8.3
2019-Dec-08 09:43 173 2 gusting 6 8.3
2019-Dec-08 09:38 194 4 gusting 6 8.3
2019-Dec-08 09:33 171 1 gusting 5 7.8
2019-Dec-08 09:28 175 3 gusting 5 7.8
2019-Dec-08 09:23 159 3 gusting 5 7.2
2019-Dec-08 09:18 178 3 gusting 6 7.2
2019-Dec-08 09:13 187 3 gusting 6 6.7
2019-Dec-08 09:08 182 3 gusting 5 6.7
2019-Dec-08 09:03 186 3 gusting 6 6.1
2019-Dec-08 08:58 190 4 gusting 6 6.1
2019-Dec-08 08:53 187 4 gusting 6 5.6
2019-Dec-08 08:48 188 4 gusting 6 5.6
2019-Dec-08 08:43 190 4 gusting 6 5.0
2019-Dec-08 08:38 194 4 gusting 6 5.0
2019-Dec-08 08:33 196 4 gusting 6 4.4
2019-Dec-08 08:28 199 4 gusting 6 4.4
2019-Dec-08 08:23 198 4 gusting 6 4.4
2019-Dec-08 08:18 188 5 gusting 6 3.9
2019-Dec-08 08:13 182 5 gusting 6 3.9
2019-Dec-08 08:08 182 4 gusting 6 3.9
2019-Dec-08 08:03 193 5 gusting 6 3.3
2019-Dec-08 07:53 178 4 gusting 6 3.3
2019-Dec-08 07:48 187 5 gusting 6 3.3
2019-Dec-08 07:43 198 5 gusting 6 3.3
2019-Dec-08 07:38 192 4 gusting 6 3.3
2019-Dec-08 07:33 198 5 gusting 6 2.8
2019-Dec-08 07:28 180 2 gusting 6 2.8
2019-Dec-08 07:23 177 4 gusting 6 2.8
2019-Dec-08 07:18 184 4 gusting 6 2.8
2019-Dec-08 07:13 185 4 gusting 6 2.8
2019-Dec-08 07:08 183 2 gusting 5 2.8
2019-Dec-08 07:03 182 3 gusting 5 2.8
2019-Dec-08 06:58 183 1 gusting 2 2.8
2019-Dec-08 06:53 183 2 gusting 4 2.8
2019-Dec-08 06:48 183 1 gusting 4 2.8
2019-Dec-08 06:43 183 2 gusting 3 2.8
2019-Dec-08 06:38 183 1 gusting 3 2.8
2019-Dec-08 06:28 183 1 gusting 5 3.3
2019-Dec-08 06:23 188 3 gusting 5 3.3
2019-Dec-08 06:18 194 3 gusting 5 3.3
2019-Dec-08 06:13 188 2 gusting 4 3.3
2019-Dec-08 06:08 194 3 gusting 4 3.3
2019-Dec-08 06:03 194 2 gusting 5 3.3
2019-Dec-08 05:58 196 4 gusting 5 3.3
2019-Dec-08 05:53 187 4 gusting 5 3.3
2019-Dec-08 05:48 173 3 gusting 6 3.3
2019-Dec-08 05:43 190 3 gusting 6 3.3
2019-Dec-08 05:38 193 4 gusting 5 3.3
2019-Dec-08 05:33 198 2 gusting 4 3.9
2019-Dec-08 05:28 186 2 gusting 4 3.9
2019-Dec-08 05:23 186 1 gusting 4 3.3
2019-Dec-08 05:18 186 3 gusting 4 3.3
2019-Dec-08 05:13 186 2 gusting 4 3.3
2019-Dec-08 05:08 186 2 gusting 5 3.9
2019-Dec-08 05:03 199 3 gusting 5 3.9
2019-Dec-08 04:58 176 2 gusting 6 3.9
2019-Dec-08 04:53 179 3 gusting 6 3.9
2019-Dec-08 04:48 192 4 gusting 6 3.9
2019-Dec-08 04:43 190 3 gusting 4 3.9
2019-Dec-08 04:38 188 1 gusting 4 3.9
2019-Dec-08 04:33 188 1 gusting 5 3.9
2019-Dec-08 04:28 188 3 gusting 5 3.9
2019-Dec-08 04:23 186 2 gusting 5 3.9
2019-Dec-08 04:18 186 1 gusting 5 3.9
2019-Dec-08 04:13 184 2 gusting 4 3.9
2019-Dec-08 04:08 184 1 gusting 5 3.9
2019-Dec-08 04:03 184 3 gusting 5 3.9
2019-Dec-08 03:58 167 1 gusting 4 3.9
2019-Dec-08 03:53 166 1 gusting 4 3.9
2019-Dec-08 03:48 173 1 gusting 5 3.9
2019-Dec-08 03:43 180 3 gusting 5 3.3
2019-Dec-08 03:38 186 3 gusting 5 3.3
2019-Dec-08 03:33 173 4 gusting 5 3.9
2019-Dec-08 03:29 178 2 gusting 6 3.9
2019-Dec-08 03:23 188 4 gusting 6 3.9
2019-Dec-08 03:18 183 4 gusting 6 3.9
2019-Dec-08 03:13 192 1 gusting 2 3.9
2019-Dec-08 03:08 209 1 gusting 4 3.9
2019-Dec-08 03:03 169 2 gusting 4 3.9
2019-Dec-08 02:58 169 1 gusting 3 4.4
2019-Dec-08 02:53 169 1 gusting 2 4.4
2019-Dec-08 02:48 169 1 gusting 2 4.4
2019-Dec-08 02:43 169 1 gusting 4 4.4
2019-Dec-08 02:38 192 2 gusting 4 4.4
2019-Dec-08 02:33 192 2 gusting 4 4.4
2019-Dec-08 02:28 196 3 gusting 4 4.4
2019-Dec-08 02:23 189 3 gusting 4 4.4
2019-Dec-08 02:18 187 2 gusting 4 4.4
2019-Dec-08 02:13 187 1 gusting 4 4.4
2019-Dec-08 02:08 187 0 gusting 4 4.4
2019-Dec-08 02:03 187 2 gusting 4 4.4
2019-Dec-08 01:58 187 1 gusting 5 4.4
2019-Dec-08 01:53 187 3 gusting 5 4.4
2019-Dec-08 01:48 185 1 gusting 5 5.0
2019-Dec-08 01:43 186 3 gusting 5 5.0
2019-Dec-08 01:38 184 3 gusting 5 5.0
2019-Dec-08 01:33 177 3 gusting 5 5.0
2019-Dec-08 01:28 173 2 gusting 5 5.0
2019-Dec-08 01:23 181 3 gusting 5 5.0
2019-Dec-08 01:18 186 3 gusting 5 5.0
2019-Dec-08 01:13 177 2 gusting 4 5.0
2019-Dec-08 01:08 174 1 gusting 6 5.6
2019-Dec-08 01:03 182 3 gusting 6 5.6
2019-Dec-08 00:58 182 4 gusting 5 5.6
2019-Dec-08 00:53 184 1 gusting 5 5.6
2019-Dec-08 00:48 190 2 gusting 5 5.6
2019-Dec-08 00:43 198 4 gusting 5 5.6
2019-Dec-08 00:38 198 4 gusting 5 5.6
2019-Dec-08 00:33 197 4 gusting 5 5.6
2019-Dec-08 00:28 197 4 gusting 5 5.6
2019-Dec-08 00:23 188 4 gusting 6 6.1
2019-Dec-08 00:18 195 5 gusting 6 6.1
2019-Dec-08 00:13 184 3 gusting 6 5.6
2019-Dec-08 00:08 202 5 gusting 6 6.1
2019-Dec-07 23:58 174 5 gusting 6 5.6
2019-Dec-07 23:53 173 3 gusting 6 5.6
2019-Dec-07 23:48 180 4 gusting 7 5.6
2019-Dec-07 23:43 173 3 gusting 7 5.6
2019-Dec-07 23:38 193 5 gusting 6 5.6
2019-Dec-07 23:33 194 4 gusting 6 5.6
2019-Dec-07 23:28 198 4 gusting 6 5.6
2019-Dec-07 23:23 175 3 gusting 6 5.6
2019-Dec-07 23:18 202 4 gusting 5 5.6
2019-Dec-07 23:13 216 1 gusting 4 5.6
2019-Dec-07 23:08 221 2 gusting 6 5.0
2019-Dec-07 23:03 216 2 gusting 6 5.0
2019-Dec-07 22:58 211 4 gusting 6 5.0
2019-Dec-07 22:53 198 1 gusting 5 5.0
2019-Dec-07 22:48 198 3 gusting 5 5.0
2019-Dec-07 22:43 198 2 gusting 6 5.6
2019-Dec-07 22:33 190 2 gusting 4 5.6
2019-Dec-07 22:28 178 2 gusting 4 5.6
2019-Dec-07 22:23 216 2 gusting 4 5.6
2019-Dec-07 22:18 216 2 gusting 4 5.6
2019-Dec-07 22:13 222 1 gusting 4 5.6
2019-Dec-07 22:08 222 2 gusting 4 5.6
2019-Dec-07 22:03 172 1 gusting 3 5.6
2019-Dec-07 21:58 172 1 gusting 2 5.6
2019-Dec-07 21:53 172 1 gusting 2 5.6
2019-Dec-07 21:48 172 1 gusting 2 5.6
2019-Dec-07 21:43 172 0 gusting 3 5.6
2019-Dec-07 21:38 172 1 gusting 4 5.6
2019-Dec-07 21:33 172 1 gusting 4 5.6
2019-Dec-07 21:28 158 1 gusting 4 5.6
2019-Dec-07 21:23 157 3 gusting 5 5.6
2019-Dec-07 21:18 175 2 gusting 5 5.6
2019-Dec-07 21:13 197 1 gusting 5 5.6
2019-Dec-07 21:08 197 3 gusting 5 5.6
2019-Dec-07 21:03 191 1 gusting 4 5.0
2019-Dec-07 20:58 191 2 gusting 4 5.0
2019-Dec-07 20:53 191 1 gusting 3 5.0
2019-Dec-07 20:48 190 0 gusting 1 5.0
2019-Dec-07 20:43 190 0 gusting 1 5.0
2019-Dec-07 20:33 190 0 gusting 4 5.0
2019-Dec-07 20:28 209 3 gusting 4 5.0
2019-Dec-07 20:23 173 3 gusting 4 5.0
2019-Dec-07 20:18 171 0 gusting 4 5.0
2019-Dec-07 20:13 171 1 gusting 4 5.0
2019-Dec-07 20:08 173 2 gusting 6 5.0
2019-Dec-07 20:03 186 4 gusting 6 5.0
2019-Dec-07 19:58 188 4 gusting 6 5.0
2019-Dec-07 19:53 182 3 gusting 4 5.0
2019-Dec-07 19:43 188 2 gusting 6 5.0
2019-Dec-07 19:38 196 4 gusting 5 5.0
2019-Dec-07 19:33 194 3 gusting 5 5.0
2019-Dec-07 19:28 184 3 gusting 4 5.0
2019-Dec-07 19:23 184 1 gusting 4 5.0
2019-Dec-07 19:18 190 1 gusting 4 5.0
2019-Dec-07 19:13 190 3 gusting 4 5.0
2019-Dec-07 19:08 190 1 gusting 4 5.0
2019-Dec-07 19:03 190 1 gusting 4 5.0
2019-Dec-07 18:58 190 2 gusting 4 5.6
2019-Dec-07 18:53 169 2 gusting 4 5.6
2019-Dec-07 18:48 167 0 gusting 1 5.6
2019-Dec-07 18:43 167 0 gusting 1 5.6
2019-Dec-07 18:38 167 5.6
2019-Dec-07 18:33 167 5.6
2019-Dec-07 18:28 167 0 gusting 1 5.6
2019-Dec-07 18:18 167 0 gusting 1 5.6
2019-Dec-07 18:13 167 6.1
2019-Dec-07 18:08 167 6.1
2019-Dec-07 18:03 167 0 gusting 3 6.1
2019-Dec-07 17:58 167 0 gusting 3 6.1
2019-Dec-07 17:53 167 0 gusting 1 6.1
2019-Dec-07 17:48 167 0 gusting 1 6.1
2019-Dec-07 17:43 167 0 gusting 1 6.1
2019-Dec-07 17:38 167 0 gusting 1 6.1
2019-Dec-07 17:33 167 0 gusting 0 6.1
2019-Dec-07 17:28 167 6.1
2019-Dec-07 17:23 167 6.1
2019-Dec-07 17:18 167 1 gusting 4 6.1
2019-Dec-07 17:13 170 3 gusting 5 6.7
2019-Dec-07 17:08 178 3 gusting 5 6.7
2019-Dec-07 17:03 178 3 gusting 5 6.7
2019-Dec-07 16:58 173 3 gusting 6 6.7
2019-Dec-07 16:53 188 3 gusting 6 6.7
2019-Dec-07 16:48 181 4 gusting 6 6.7
2019-Dec-07 16:43 194 5 gusting 6 6.7
2019-Dec-07 16:38 181 2 gusting 5 7.2
2019-Dec-07 16:33 175 4 gusting 5 7.2
2019-Dec-07 16:28 167 1 gusting 4 7.2
2019-Dec-07 16:18 172 2 gusting 4 7.8
2019-Dec-07 16:13 163 1 gusting 3 7.8
2019-Dec-07 16:09 146 1 gusting 3 7.8
2019-Dec-07 16:03 136 1 gusting 2 7.8
2019-Dec-07 15:58 082 0 gusting 1 7.8
2019-Dec-07 15:53 082 0 gusting 1 7.8
2019-Dec-07 15:48 082 0 gusting 3 8.3
2019-Dec-07 15:43 082 0 gusting 2 8.3
2019-Dec-07 15:38 082 0 gusting 2 8.3
2019-Dec-07 15:28 082 1 gusting 2 8.3
2019-Dec-07 15:23 082 8.3
2019-Dec-07 15:18 082 0 gusting 4 8.3
2019-Dec-07 15:13 082 3 gusting 4 8.3
2019-Dec-07 15:08 082 1 gusting 3 8.3
2019-Dec-07 15:03 082 8.3
2019-Dec-07 14:58 082 8.3
2019-Dec-07 14:53 082 0 gusting 3 8.3
2019-Dec-07 14:48 082 0 gusting 3 8.3
2019-Dec-07 14:43 082 0 gusting 3 8.3
2019-Dec-07 14:38 082 2 gusting 3 8.9
2019-Dec-07 14:33 082 0 gusting 4 8.9
2019-Dec-07 14:28 082 1 gusting 4 8.9
2019-Dec-07 14:23 076 2 gusting 4 8.9
2019-Dec-07 14:18 053 1 gusting 4 8.9
2019-Dec-07 14:13 056 0 gusting 4 8.9
2019-Dec-07 14:08 045 2 gusting 4 8.9
2019-Dec-07 14:03 032 3 gusting 4 8.9
2019-Dec-07 13:58 019 1 gusting 4 8.9
2019-Dec-07 13:53 091 1 gusting 4 8.9
2019-Dec-07 13:48 058 3 gusting 4 8.9
2019-Dec-07 13:43 049 1 gusting 4 8.3
2019-Dec-07 13:38 040 2 gusting 5 8.3
2019-Dec-07 13:33 023 2 gusting 6 8.3
2019-Dec-07 13:28 020 5 gusting 6 8.3
2019-Dec-07 13:23 025 5 gusting 6 8.3
2019-Dec-07 13:19 029 2 gusting 6 8.9
2019-Dec-07 13:13 033 4 gusting 6 8.9
2019-Dec-07 13:08 005 3 gusting 5 8.9
2019-Dec-07 13:03 020 2 gusting 5 8.9
2019-Dec-07 12:58 012 4 gusting 5 8.9
2019-Dec-07 12:53 023 1 gusting 4 8.9
2019-Dec-07 12:48 030 3 gusting 4 8.9
2019-Dec-07 12:38 024 3 gusting 4 8.9
2019-Dec-07 12:33 011 2 gusting 4 8.9
2019-Dec-07 12:28 360 3 gusting 4 9.4
2019-Dec-07 12:23 005 1 gusting 4 9.4
2019-Dec-07 12:18 360 0 gusting 4 9.4
2019-Dec-07 12:13 005 1 gusting 4 9.4
2019-Dec-07 12:03 325 2 gusting 4 9.4
2019-Dec-07 11:58 070 0 gusting 4 9.4
2019-Dec-07 11:48 005 3 gusting 6 8.9
2019-Dec-07 11:43 337 1 gusting 6 8.9
2019-Dec-07 11:38 330 4 gusting 6 8.9
2019-Dec-07 11:33 336 2 gusting 6 8.3
2019-Dec-07 11:28 324 5 gusting 6 8.3
2019-Dec-07 11:23 360 1 gusting 6 8.3
2019-Dec-07 11:18 331 3 gusting 6 8.3
2019-Dec-07 11:13 326 4 gusting 8 8.3
2019-Dec-07 11:08 313 4 gusting 8 8.3
2019-Dec-07 11:03 338 5 gusting 7 8.3
2019-Dec-07 10:58 332 5 gusting 6 8.3
2019-Dec-07 10:53 337 4 gusting 6 8.3
2019-Dec-07 10:48 311 5 gusting 6 8.3
2019-Dec-07 10:43 292 3 gusting 6 8.3
2019-Dec-07 10:38 316 2 gusting 6 8.3
2019-Dec-07 10:33 306 5 gusting 6 7.8
2019-Dec-07 10:28 341 3 gusting 6 7.8
2019-Dec-07 10:23 335 5 gusting 6 7.8
2019-Dec-07 10:18 301 4 gusting 6 7.8
2019-Dec-07 10:13 327 4 gusting 6 7.8
2019-Dec-07 10:08 311 5 gusting 6 7.8
2019-Dec-07 10:03 342 2 gusting 6 7.8
2019-Dec-07 09:58 331 3 gusting 6 7.8
2019-Dec-07 09:53 328 4 gusting 7 7.8
2019-Dec-07 09:48 309 4 gusting 7 7.2
2019-Dec-07 09:44 313 4 gusting 6 7.2
2019-Dec-07 09:39 311 3 gusting 6 7.2
2019-Dec-07 09:33 284 4 gusting 6 7.2
2019-Dec-07 09:28 336 3 gusting 7 7.2
2019-Dec-07 09:23 303 5 gusting 7 7.2
2019-Dec-07 09:18 273 5 gusting 8 6.7
2019-Dec-07 09:13 296 4 gusting 9 7.2
2019-Dec-07 09:08 308 6 gusting 9 7.2
2019-Dec-07 09:03 308 6 gusting 9 7.2
2019-Dec-07 08:58 309 5 gusting 7 6.7
2019-Dec-07 08:53 313 4 gusting 6 6.7
2019-Dec-07 08:48 292 2 gusting 6 6.7
2019-Dec-07 08:43 267 2 gusting 6 6.1
2019-Dec-07 08:38 265 3 gusting 6 6.1
2019-Dec-07 08:33 278 3 gusting 6 6.1
2019-Dec-07 08:29 278 1 gusting 4 5.6
2019-Dec-07 08:23 251 1 gusting 3 5.6
2019-Dec-07 08:18 190 1 gusting 2 5.0
2019-Dec-07 08:13 190 1 gusting 2 5.0
2019-Dec-07 08:08 190 0 gusting 2 5.0
2019-Dec-07 08:03 190 1 gusting 4 5.0
2019-Dec-07 07:58 190 0 gusting 4 5.0
2019-Dec-07 07:53 190 3 gusting 4 5.0
2019-Dec-07 07:48 190 2 gusting 4 5.0
2019-Dec-07 07:43 190 1 gusting 5 4.4
2019-Dec-07 07:39 190 3 gusting 5 4.4
2019-Dec-07 07:33 190 2 gusting 5 4.4
2019-Dec-07 07:28 190 2 gusting 5 4.4
2019-Dec-07 07:23 196 3 gusting 5 4.4
2019-Dec-07 07:18 191 1 gusting 4 4.4
2019-Dec-07 07:13 191 3 gusting 4 4.4
2019-Dec-07 07:08 191 4.4
2019-Dec-07 06:58 191 1 gusting 4 4.4
2019-Dec-07 06:53 191 0 gusting 4 4.4
2019-Dec-07 06:48 191 0 gusting 4 4.4
2019-Dec-07 06:43 191 1 gusting 3 4.4
2019-Dec-07 06:38 191 1 gusting 4 4.4
2019-Dec-07 06:33 191 3 gusting 4 4.4
2019-Dec-07 06:28 190 2 gusting 4 4.4
2019-Dec-07 06:23 190 0 gusting 3 5.0
2019-Dec-07 06:18 190 1 gusting 2 5.0
2019-Dec-07 06:13 190 1 gusting 4 5.0
2019-Dec-07 06:08 190 1 gusting 5 5.0
2019-Dec-07 06:03 194 4 gusting 5 5.0
2019-Dec-07 05:58 200 2 gusting 4 5.0
2019-Dec-07 05:53 184 1 gusting 4 5.0
2019-Dec-07 05:48 184 2 gusting 4 5.0
2019-Dec-07 05:43 184 3 gusting 4 5.0
2019-Dec-07 05:38 184 1 gusting 3 5.6
2019-Dec-07 05:33 184 1 gusting 4 5.6
2019-Dec-07 05:28 185 1 gusting 4 5.6
2019-Dec-07 05:23 185 1 gusting 2 5.6
2019-Dec-07 05:18 185 1 gusting 3 5.6
2019-Dec-07 05:13 185 1 gusting 1 5.6
2019-Dec-07 05:08 185 0 gusting 1 5.6
2019-Dec-07 05:03 185 0 gusting 3 5.6
2019-Dec-07 04:58 185 1 gusting 2 5.6
2019-Dec-07 04:53 185 1 gusting 2 5.6
2019-Dec-07 04:48 185 1 gusting 3 5.6
2019-Dec-07 04:43 185 2 gusting 3 5.6
2019-Dec-07 04:38 185 2 gusting 3 5.6
2019-Dec-07 04:33 185 1 gusting 2 5.6
2019-Dec-07 04:28 185 2 gusting 4 5.6
2019-Dec-07 04:23 185 1 gusting 5 5.6
2019-Dec-07 04:18 185 2 gusting 5 5.6
2019-Dec-07 04:13 173 2 gusting 4 5.6
2019-Dec-07 04:08 188 2 gusting 4 5.6
2019-Dec-07 04:03 188 3 gusting 4 5.6
2019-Dec-07 03:58 179 2 gusting 3 5.6
2019-Dec-07 03:53 179 1 gusting 3 5.6
2019-Dec-07 03:48 178 0 gusting 4 5.6
2019-Dec-07 03:43 178 1 gusting 4 5.0
2019-Dec-07 03:38 192 2 gusting 4 5.0
2019-Dec-07 03:33 198 2 gusting 4 5.0
2019-Dec-07 03:28 207 3 gusting 4 5.0
2019-Dec-07 03:23 211 2 gusting 4 5.0
2019-Dec-07 03:18 211 3 gusting 4 5.0
2019-Dec-07 03:13 211 1 gusting 2 5.0
2019-Dec-07 03:08 212 0 gusting 4 5.0
2019-Dec-07 03:03 212 2 gusting 4 5.0
2019-Dec-07 02:58 213 2 gusting 3 5.0
2019-Dec-07 02:53 213 1 gusting 3 5.0
2019-Dec-07 02:43 213 1 gusting 3 5.0
2019-Dec-07 02:38 213 1 gusting 2 4.4
2019-Dec-07 02:33 213 1 gusting 3 4.4
2019-Dec-07 02:28 213 0 gusting 1 4.4
2019-Dec-07 02:23 213 1 gusting 3 4.4
2019-Dec-07 02:18 213 1 gusting 2 4.4
2019-Dec-07 02:13 213 2 gusting 3 4.4
2019-Dec-07 02:08 213 0 gusting 2 4.4
2019-Dec-07 02:03 213 3 gusting 4 4.4
2019-Dec-07 01:59 213 1 gusting 4 4.4
2019-Dec-07 01:53 213 3 gusting 4 4.4
2019-Dec-07 01:48 212 2 gusting 4 4.4
2019-Dec-07 01:43 209 2 gusting 4 4.4
2019-Dec-07 01:38 173 2 gusting 5 4.4
2019-Dec-07 01:33 177 2 gusting 5 4.4
2019-Dec-07 01:28 188 2 gusting 5 4.4
2019-Dec-07 01:23 178 2 gusting 5 3.9
2019-Dec-07 01:18 178 2 gusting 5 3.9
2019-Dec-07 01:13 182 2 gusting 4 3.9
2019-Dec-07 01:08 182 3 gusting 4 3.9
2019-Dec-07 01:04 169 2 gusting 4 3.9
2019-Dec-07 00:58 189 2 gusting 4 3.9
2019-Dec-07 00:53 189 1 gusting 2 3.9
2019-Dec-07 00:43 190 0 gusting 3 3.9
2019-Dec-07 00:38 190 1 gusting 4 3.9
2019-Dec-07 00:34 190 0 gusting 4 3.9
2019-Dec-07 00:28 190 2 gusting 6 3.9
2019-Dec-07 00:23 209 4 gusting 6 3.9
2019-Dec-07 00:18 186 1 gusting 4 3.9
2019-Dec-07 00:13 186 2 gusting 5 3.9
2019-Dec-07 00:08 186 3 gusting 5 3.9
2019-Dec-07 00:03 200 4 gusting 5 4.4
2019-Dec-06 23:58 196 4 gusting 5 4.4
2019-Dec-06 23:53 196 1 gusting 6 4.4
2019-Dec-06 23:48 196 4 gusting 6 4.4
2019-Dec-06 23:43 181 3 gusting 4 4.4
2019-Dec-06 23:38 181 3 gusting 6 4.4
2019-Dec-06 23:33 192 4 gusting 6 4.4
2019-Dec-06 23:28 209 2 gusting 4 4.4
2019-Dec-06 23:23 188 2 gusting 5 4.4
2019-Dec-06 23:18 180 2 gusting 5 4.4
2019-Dec-06 23:13 190 3 gusting 5 4.4
2019-Dec-06 23:09 178 2 gusting 5 4.4
2019-Dec-06 23:03 200 2 gusting 6 4.4
2019-Dec-06 22:58 207 4 gusting 6 4.4
2019-Dec-06 22:53 195 4 gusting 5 4.4
2019-Dec-06 22:48 184 2 gusting 5 4.4
2019-Dec-06 22:43 185 3 gusting 4 4.4
2019-Dec-06 22:38 182 2 gusting 4 4.4
2019-Dec-06 22:33 181 2 gusting 4 4.4
2019-Dec-06 22:28 181 1 gusting 4 4.4
2019-Dec-06 22:23 181 2 gusting 4 4.4
2019-Dec-06 22:18 181 3 gusting 4 4.4
2019-Dec-06 22:13 181 2 gusting 5 4.4
2019-Dec-06 22:08 180 4 gusting 5 4.4
2019-Dec-06 22:03 188 1 gusting 4 4.4
2019-Dec-06 21:53 170 1 gusting 3 5.0
2019-Dec-06 21:48 170 0 gusting 5 5.0
2019-Dec-06 21:43 178 3 gusting 5 5.0
2019-Dec-06 21:38 190 1 gusting 4 5.0
2019-Dec-06 21:33 190 2 gusting 4 5.0
2019-Dec-06 21:28 190 2 gusting 5 5.0
2019-Dec-06 21:23 190 3 gusting 5 5.0
2019-Dec-06 21:18 180 3 gusting 5 5.0
2019-Dec-06 21:13 177 3 gusting 4 5.6
2019-Dec-06 21:08 177 2 gusting 4 5.6
2019-Dec-06 21:03 177 2 gusting 4 5.6
2019-Dec-06 20:58 176 2 gusting 4 5.6
2019-Dec-06 20:53 175 2 gusting 4 5.6
2019-Dec-06 20:48 183 2 gusting 4 5.6
2019-Dec-06 20:43 184 1 gusting 4 5.6
2019-Dec-06 20:38 184 1 gusting 4 5.6
2019-Dec-06 20:33 184 1 gusting 4 5.6
2019-Dec-06 20:28 188 3 gusting 4 6.1
2019-Dec-06 20:23 186 2 gusting 3 6.1
2019-Dec-06 20:19 186 2 gusting 4 6.1
2019-Dec-06 20:13 186 1 gusting 5 6.1
2019-Dec-06 20:08 186 2 gusting 4 6.1
2019-Dec-06 20:03 186 2 gusting 4 6.1
2019-Dec-06 19:58 189 3 gusting 4 6.1
2019-Dec-06 19:53 177 2 gusting 4 6.1
2019-Dec-06 19:48 177 3 gusting 4 6.1
2019-Dec-06 19:43 187 2 gusting 4 6.1
2019-Dec-06 19:38 187 3 gusting 4 6.1
2019-Dec-06 19:33 187 3 gusting 4 6.1
2019-Dec-06 19:28 187 1 gusting 4 6.1
2019-Dec-06 19:23 187 0 gusting 3 6.1
2019-Dec-06 19:18 187 2 gusting 2 6.1
2019-Dec-06 19:13 187 1 gusting 5 6.1
2019-Dec-06 19:03 184 3 gusting 5 6.1
2019-Dec-06 18:58 184 1 gusting 5 6.1
2019-Dec-06 18:53 184 3 gusting 4 6.1
2019-Dec-06 18:48 178 2 gusting 4 6.7
2019-Dec-06 18:43 193 1 gusting 5 6.7
2019-Dec-06 18:38 194 2 gusting 5 6.7
2019-Dec-06 18:33 188 2 gusting 4 6.7
2019-Dec-06 18:28 171 2 gusting 4 6.7
2019-Dec-06 18:23 175 2 gusting 4 6.7
2019-Dec-06 18:18 186 1 gusting 3 6.7
2019-Dec-06 18:13 187 0 gusting 1 6.7
2019-Dec-06 18:08 186 0 gusting 3 7.2
2019-Dec-06 18:03 186 0 gusting 3 7.2
2019-Dec-06 17:58 186 0 gusting 3 7.2
2019-Dec-06 17:53 187 0 gusting 1 7.2
2019-Dec-06 17:48 187 0 gusting 1 7.2
2019-Dec-06 17:43 186 0 gusting 1 7.2
2019-Dec-06 17:38 187 0 gusting 1 7.8
2019-Dec-06 17:33 187 0 gusting 1 7.8
2019-Dec-06 17:28 186 0 gusting 1 7.8
2019-Dec-06 17:23 186 0 gusting 1 7.8
2019-Dec-06 17:18 186 0 gusting 3 7.8
2019-Dec-06 17:13 186 1 gusting 3 7.8
2019-Dec-06 17:08 187 1 gusting 2 8.3
2019-Dec-06 17:03 186 1 gusting 2 8.3
2019-Dec-06 16:58 199 1 gusting 3 8.3
2019-Dec-06 16:48 199 0 gusting 2 8.3
2019-Dec-06 16:43 199 8.9
2019-Dec-06 16:38 199 0 gusting 3 8.9
2019-Dec-06 16:33 268 0 gusting 1 8.9
2019-Dec-06 16:28 268 0 gusting 3 8.9
2019-Dec-06 16:23 268 1 gusting 2 8.9
2019-Dec-06 16:18 269 0 gusting 3 8.9
2019-Dec-06 16:13 269 1 gusting 3 8.9
2019-Dec-06 16:08 269 1 gusting 3 8.9
2019-Dec-06 16:03 268 0 gusting 1 8.9
2019-Dec-06 15:58 268 0 gusting 1 8.9
2019-Dec-06 15:53 268 0 gusting 3 8.9
2019-Dec-06 15:48 268 0 gusting 3 8.9
2019-Dec-06 15:43 268 0 gusting 1 8.9
2019-Dec-06 15:38 268 0 gusting 1 8.9
2019-Dec-06 15:33 268 0 gusting 1 8.9
2019-Dec-06 15:23 268 8.9
2019-Dec-06 15:18 268 1 gusting 1 8.9
2019-Dec-06 15:13 268 0 gusting 1 8.9
2019-Dec-06 15:08 268 0 gusting 1 8.9
2019-Dec-06 15:03 268 8.9